Simultaneous Nadir Overpasses (SNOs) Predictions

Prediction of SNOs between LANDSAT-8 and METOP-B Satellite Orbit:

Table of predicted SNOs for the next 14.0 days since TLE Epoch: 11/8/2025
Index Date (LANDSAT-8) Time (LANDSAT-8) Lat,Lon (LANDSAT-8) SZA (LANDSAT-8 ) Date (METOP-B) Time (METOP-B) Lat,Lon (METOP-B) SZA (METOP-B ) Distance(km) Time Diff (sec)
1 11/09/2025 03:55:13 81.35, 165.00 100.98 11/09/2025 03:54:23 81.36, 165.09 100.97 1.66 50
2 11/09/2025 04:44:39 -81.37, -27.06 78.97 11/09/2025 04:45:03 -81.36, -27.24 78.99 3.17 24
3 11/11/2025 23:29:25 81.36,-128.29 101.79 11/11/2025 23:29:01 81.36,-128.15 101.79 2.39 24
4 11/12/2025 00:18:52 -81.36, 39.29 78.22 11/12/2025 00:19:42 -81.36, 39.09 78.22 3.29 50
5 11/14/2025 18:14:12 -81.36, 130.48 77.50 11/14/2025 18:13:00 -81.36, 130.66 77.52 3.07 72
6 11/14/2025 19:03:38 81.37, -61.83 102.52 11/14/2025 19:03:41 81.36, -61.89 102.51 1.26 3
7 11/17/2025 13:48:25 -81.35,-163.29 76.85 11/17/2025 13:47:40 -81.36,-163.20 76.86 1.57 45
8 11/17/2025 14:37:51 81.35, 4.37 103.16 11/17/2025 14:38:21 81.36, 4.26 103.17 1.95 30
9 11/20/2025 09:22:36 -81.35, -96.93 76.23 11/20/2025 09:22:18 -81.36, -96.77 76.22 2.85 18



Historial Predications of SNOs between LANDSAT-8 and METOP-B
